When you browse on this site, cookies collect data to enhance your experience and personalize the content and advertising you see.
Visit our Privacy Policy to learn more. By continuing to use the site, you agree to this use of cookies and data.
  • In Slovakia
  • List of Countries
  • For 7 days
  • Water Temperature
  • Satellite Maps
  • Weather Map
  • Weather Widgets
  • user-avatar
    Login

    Hourly Weather Byala

    Today, 27 June, Thursday

    Time Temperature Precipitation Wind Pressure Humidity
    00:00 +21°C° 0 mm 3 mps 754 mmHg 92%
    01:00 +21°C° 0 mm 4 mps 754 mmHg 92%
    02:00 +20°C° 0 mm 4 mps 754 mmHg 92%
    03:00 +20°C° 0 mm 3 mps 754 mmHg 91%
    04:00 +20°C° 0 mm 3 mps 753 mmHg 90%
    05:00 +20°C° 0 mm 3 mps 753 mmHg 90%
    06:00 +22°C° 0 mm 3 mps 753 mmHg 80%
    07:00 +25°C° 0 mm 3 mps 753 mmHg 70%
    08:00 +27°C° 0 mm 3 mps 753 mmHg 60%
    09:00 +28°C° 0 mm 3 mps 753 mmHg 55%
    10:00 +30°C° 0 mm 3 mps 753 mmHg 49%
    11:00 +31°C° 0 mm 3 mps 752 mmHg 43%
    12:00 +33°C° 0 mm 3 mps 752 mmHg 41%
    13:00 +33°C° 0 mm 3 mps 751 mmHg 39%
    14:00 +34°C° 0 mm 3 mps 751 mmHg 37%
    15:00 +33°C° 0 mm 3 mps 750 mmHg 38%
    16:00 +33°C° 0 mm 3 mps 750 mmHg 39%
    17:00 +31°C° 0 mm 3 mps 749 mmHg 40%
    18:00 +29°C° 0 mm 3 mps 749 mmHg 48%
    19:00 +27°C° 0 mm 3 mps 748 mmHg 56%
    20:00 +25°C° 0 mm 3 mps 748 mmHg 64%
    21:00 +24°C° 0 mm 3 mps 748 mmHg 65%
    22:00 +22°C° 0 mm 3 mps 748 mmHg 67%
    23:00 +22°C° 0 mm 3 mps 748 mmHg 69%

    Tomorrow, 28 June, Friday

    Time Temperature Precipitation Wind Pressure Humidity
    00:00 +23°C° 0 mm 2 mps 748 mmHg 72%
    01:00 +23°C° 0 mm 2 mps 747 mmHg 76%
    02:00 +23°C° 0 mm 2 mps 747 mmHg 79%
    03:00 +21°C° 0 mm 3 mps 747 mmHg 80%
    04:00 +21°C° 0 mm 4 mps 747 mmHg 81%
    05:00 +21°C° 0 mm 4 mps 747 mmHg 82%
    06:00 +22°C° 0.1 mm 5 mps 747 mmHg 78%
    07:00 +25°C° 0.1 mm 5 mps 747 mmHg 75%
    08:00 +26°C° 0.1 mm 6 mps 747 mmHg 72%
    09:00 +27°C° 0.1 mm 6 mps 747 mmHg 66%
    10:00 +27°C° 0.1 mm 6 mps 747 mmHg 61%
    11:00 +28°C° 0.1 mm 6 mps 748 mmHg 56%
    12:00 +28°C° 0.1 mm 6 mps 748 mmHg 54%
    13:00 +28°C° 0.1 mm 7 mps 748 mmHg 52%
    14:00 +28°C° 0.1 mm 7 mps 748 mmHg 51%
    15:00 +27°C° 0 mm 6 mps 748 mmHg 52%
    16:00 +26°C° 0 mm 5 mps 748 mmHg 54%
    17:00 +25°C° 0 mm 4 mps 748 mmHg 56%
    18:00 +23°C° 0 mm 4 mps 748 mmHg 59%
    19:00 +23°C° 0 mm 4 mps 749 mmHg 63%
    20:00 +22°C° 0 mm 4 mps 749 mmHg 66%
    21:00 +21°C° 0 mm 5 mps 750 mmHg 64%
    22:00 +20°C° 0 mm 6 mps 750 mmHg 61%
    23:00 +20°C° 0 mm 7 mps 750 mmHg 59%

    Day after tomorrow, 29 June, Saturday

    Time Temperature Precipitation Wind Pressure Humidity
    00:00 +20°C° 0 mm 7 mps 751 mmHg 57%
    01:00 +20°C° 0 mm 7 mps 751 mmHg 55%
    02:00 +20°C° 0 mm 8 mps 751 mmHg 54%
    03:00 +18°C° 0 mm 7 mps 751 mmHg 55%
    04:00 +18°C° 0 mm 7 mps 751 mmHg 55%
    05:00 +17°C° 0 mm 6 mps 751 mmHg 56%
    06:00 +19°C° 0 mm 6 mps 751 mmHg 53%
    07:00 +20°C° 0 mm 7 mps 752 mmHg 50%
    08:00 +21°C° 0 mm 7 mps 752 mmHg 48%
    09:00 +22°C° 0 mm 7 mps 752 mmHg 44%
    10:00 +24°C° 0 mm 7 mps 752 mmHg 40%
    11:00 +26°C° 0 mm 6 mps 752 mmHg 36%
    12:00 +26°C° 0 mm 6 mps 752 mmHg 36%
    13:00 +27°C° 0 mm 6 mps 752 mmHg 36%
    14:00 +27°C° 0 mm 6 mps 752 mmHg 36%
    15:00 +27°C° 0 mm 6 mps 752 mmHg 38%
    16:00 +26°C° 0 mm 6 mps 752 mmHg 40%
    17:00 +26°C° 0 mm 6 mps 752 mmHg 42%
    18:00 +23°C° 0 mm 5 mps 752 mmHg 48%
    19:00 +21°C° 0 mm 4 mps 752 mmHg 54%
    20:00 +20°C° 0 mm 3 mps 752 mmHg 60%
    21:00 +19°C° 0 mm 3 mps 752 mmHg 63%
    22:00 +18°C° 0 mm 3 mps 753 mmHg 66%
    23:00 +18°C° 0 mm 3 mps 753 mmHg 69%

    30 June, Sunday

    Time Temperature Precipitation Wind Pressure Humidity
    00:00 +18°C° 0 mm 4 mps 753 mmHg 69%
    01:00 +18°C° 0 mm 4 mps 753 mmHg 69%
    02:00 +17°C° 0 mm 5 mps 753 mmHg 70%
    03:00 +16°C° 0 mm 5 mps 753 mmHg 73%
    04:00 +15°C° 0 mm 5 mps 753 mmHg 77%
    05:00 +14°C° 0 mm 6 mps 753 mmHg 81%
    06:00 +16°C° 0 mm 6 mps 753 mmHg 71%
    07:00 +19°C° 0 mm 6 mps 753 mmHg 60%
    08:00 +21°C° 0 mm 6 mps 754 mmHg 50%
    09:00 +23°C° 0 mm 5 mps 754 mmHg 46%
    10:00 +25°C° 0 mm 5 mps 754 mmHg 42%
    11:00 +27°C° 0 mm 5 mps 754 mmHg 38%
    12:00 +27°C° 0 mm 5 mps 754 mmHg 38%
    13:00 +27°C° 0 mm 5 mps 754 mmHg 38%
    14:00 +27°C° 0 mm 5 mps 754 mmHg 39%
    15:00 +28°C° 0 mm 5 mps 753 mmHg 39%
    16:00 +28°C° 0 mm 5 mps 753 mmHg 40%
    17:00 +28°C° 0 mm 5 mps 753 mmHg 41%
    18:00 +26°C° 0 mm 5 mps 753 mmHg 46%
    19:00 +23°C° 0 mm 4 mps 753 mmHg 52%
    20:00 +22°C° 0 mm 4 mps 753 mmHg 58%
    21:00 +21°C° 0 mm 4 mps 753 mmHg 59%
    22:00 +21°C° 0 mm 4 mps 754 mmHg 61%
    23:00 +20°C° 0 mm 4 mps 754 mmHg 62%

    1 July, Monday

    Time Temperature Precipitation Wind Pressure Humidity
    00:00 +20°C° 0 mm 4 mps 754 mmHg 62%
    01:00 +20°C° 0 mm 4 mps 754 mmHg 61%
    02:00 +21°C° 0 mm 4 mps 754 mmHg 60%
    03:00 +20°C° 0 mm 4 mps 754 mmHg 64%
    04:00 +19°C° 0 mm 4 mps 754 mmHg 68%
    05:00 +18°C° 0 mm 4 mps 754 mmHg 71%
    06:00 +21°C° 0 mm 4 mps 754 mmHg 65%
    07:00 +23°C° 0 mm 5 mps 754 mmHg 58%
    08:00 +26°C° 0 mm 5 mps 754 mmHg 52%
    09:00 +27°C° 0 mm 5 mps 754 mmHg 47%
    10:00 +28°C° 0 mm 4 mps 755 mmHg 43%
    11:00 +29°C° 0 mm 4 mps 755 mmHg 39%
    12:00 +30°C° 0 mm 4 mps 755 mmHg 39%
    13:00 +30°C° 0 mm 4 mps 754 mmHg 40%
    14:00 +30°C° 0 mm 4 mps 754 mmHg 40%
    15:00 +29°C° 0 mm 4 mps 754 mmHg 43%
    16:00 +29°C° 0 mm 4 mps 754 mmHg 46%
    17:00 +28°C° 0 mm 4 mps 754 mmHg 49%
    18:00 +26°C° 0 mm 3 mps 753 mmHg 56%
    19:00 +24°C° 0 mm 3 mps 753 mmHg 63%
    20:00 +21°C° 0 mm 3 mps 753 mmHg 70%
    21:00 +21°C° 0 mm 3 mps 753 mmHg 73%
    22:00 +20°C° 0 mm 2 mps 753 mmHg 76%
    23:00 +19°C° 0 mm 2 mps 753 mmHg 80%

    2 July, Tuesday

    Time Temperature Precipitation Wind Pressure Humidity
    00:00 +19°C° 0 mm 2 mps 753 mmHg 81%
    01:00 +19°C° 0 mm 2 mps 753 mmHg 82%
    02:00 +19°C° 0 mm 2 mps 752 mmHg 83%
    03:00 +19°C° 0 mm 2 mps 752 mmHg 82%
    04:00 +18°C° 0 mm 2 mps 752 mmHg 82%
    05:00 +18°C° 0 mm 2 mps 751 mmHg 81%
    06:00 +21°C° 0 mm 3 mps 751 mmHg 70%
    07:00 +25°C° 0 mm 3 mps 751 mmHg 60%
    08:00 +28°C° 0 mm 3 mps 751 mmHg 49%
    09:00 +30°C° 0 mm 3 mps 751 mmHg 44%
    10:00 +33°C° 0 mm 3 mps 751 mmHg 38%
    11:00 +35°C° 0 mm 4 mps 751 mmHg 33%
    12:00 +35°C° 0 mm 4 mps 751 mmHg 32%
    13:00 +36°C° 0 mm 5 mps 751 mmHg 31%
    14:00 +36°C° 0 mm 5 mps 750 mmHg 30%
    15:00 +36°C° 0 mm 5 mps 750 mmHg 33%
    16:00 +35°C° 0 mm 5 mps 749 mmHg 36%
    17:00 +34°C° 0 mm 5 mps 749 mmHg 38%
    18:00 +32°C° 0 mm 4 mps 749 mmHg 46%
    19:00 +28°C° 0 mm 4 mps 749 mmHg 53%
    20:00 +26°C° 0 mm 3 mps 749 mmHg 61%
    21:00 +25°C° 0 mm 3 mps 749 mmHg 60%
    22:00 +25°C° 0 mm 3 mps 749 mmHg 59%
    23:00 +24°C° 0 mm 2 mps 749 mmHg 58%
    Show more